Madisonville, KY

6:24 PM CDT on April 24, 2017 (GMT -0500)
Madisonville

Weather History for K2I0 - January, 2013

Change the Weather History Date:

Sunday, January 27, 2013

  Actual Average (KOWB) Record (KOWB)
Temperature  
Mean Temperature 37 °F -  
Max Temperature 50 °F 41 °F 70 °F (1944)
Min Temperature 24 °F 23 °F -10 °F (1936)
Degree Days  
Heating Degree Days 28    
Moisture  
Dew Point 35 °F    
Average Humidity 94    
Maximum Humidity 100    
Minimum Humidity 79    
Precipitation  
Precipitation 0.05 in - - ()
Sea Level Pressure  
Sea Level Pressure 30.27 in    
Wind  
Wind Speed 4 mph (SE)    
Max Wind Speed 12 mph    
Max Gust Speed 18 mph    
Visibility 6 miles    
Events Rain    
Averages and records for this station are not official NWS values.
T = Trace of Precipitation, MM = Missing Value Source: NWS Daily Summary

Daily Weather History Graph

Daily Weather History Graph

Search for Another Location

Airport or City:

Trip Planner

Search our weather history database for the weather conditions in past years. The results will help you decide how hot, cold, wet, or windy it might be!

Date:

Astronomy

Jan. 27, 2013 Rise Set
Actual Time 6:56 AM CST 5:08 PM CST
Civil Twilight 6:28 AM CST 5:36 PM CST
Nautical Twilight 5:57 AM CST 6:08 PM CST
Astronomical Twilight 5:26 AM CST 6:38 PM CST
Moon 6:00 PM CST (1/27) 6:51 AM CST (1/27)
Length of Visible Light 11h 07m
Length of Day
10h 12m
Full, 100% of the Moon is Illuminated
Jan 27
Full
Feb 3
Last Quarter
Feb 10
New
Feb 17
First Quarter
Feb 25
Full

Hourly Weather History & Observations

Time (CST) Temp. Windchill Dew Point Humidity Pressure Visibility Wind Dir Wind Speed Gust Speed Precip Events Conditions
12:15 AM 29.5 °F 24.5 °F 27.1 °F 91% 30.36 in 10.0 mi ESE 4.6 mph - N/A   Clear
12:35 AM 30.0 °F 26.5 °F 27.5 °F 90% 30.36 in 7.0 mi ESE 3.5 mph - N/A   Clear
12:55 AM 29.1 °F 24.1 °F 27.1 °F 92% 30.35 in 7.0 mi ESE 4.6 mph - N/A   Clear
1:15 AM 30.4 °F - 28.0 °F 91% 30.35 in 7.0 mi Calm Calm - N/A   Clear
1:35 AM 29.3 °F 25.6 °F 27.3 °F 92% 30.35 in 7.0 mi ESE 3.5 mph - N/A   Clear
1:55 AM 30.7 °F 27.3 °F 28.4 °F 91% 30.36 in 7.0 mi SSE 3.5 mph - N/A   Clear
2:15 AM 30.2 °F - 28.2 °F 92% 30.34 in 7.0 mi Calm Calm - N/A   Clear
2:35 AM 29.1 °F 25.4 °F 27.5 °F 94% 30.34 in 7.0 mi ESE 3.5 mph - N/A   Clear
2:55 AM 28.6 °F - 27.5 °F 96% 30.34 in 7.0 mi Calm Calm - N/A   Clear
3:15 AM 28.6 °F - 27.1 °F 94% 30.34 in 7.0 mi Calm Calm - N/A   Clear
3:35 AM 27.1 °F - 26.2 °F 96% 30.34 in 5.0 mi Calm Calm - N/A   Clear
3:55 AM 27.5 °F 23.6 °F 27.1 °F 99% 30.34 in 5.0 mi East 3.5 mph - N/A   Clear
4:15 AM 27.3 °F 19.9 °F 26.8 °F 98% 30.33 in 5.0 mi ENE 6.9 mph - N/A   Clear
4:35 AM 27.3 °F - 26.6 °F 97% 30.33 in 5.0 mi Calm Calm - N/A   Clear
4:55 AM 25.0 °F - 24.6 °F 99% 30.34 in 4.0 mi Calm Calm - N/A   Clear
5:15 AM 24.8 °F 19.1 °F 24.4 °F 99% 30.34 in 4.0 mi ENE 4.6 mph - N/A   Clear
5:35 AM 26.4 °F - 26.1 °F 99% 30.34 in 4.0 mi Calm Calm - N/A   Clear
5:55 AM 26.6 °F 20.0 °F 26.6 °F 100% 30.33 in 4.0 mi East 5.8 mph - N/A   Clear
6:15 AM 27.7 °F 22.4 °F 27.3 °F 99% 30.32 in 5.0 mi East 4.6 mph - N/A   Clear
6:35 AM 29.1 °F 25.4 °F 28.4 °F 97% 30.33 in 5.0 mi East 3.5 mph - N/A   Scattered Clouds
6:55 AM 29.7 °F 24.7 °F 28.4 °F 95% 30.33 in 5.0 mi ESE 4.6 mph - N/A   Scattered Clouds
7:15 AM 29.8 °F - 28.4 °F 94% 30.34 in 4.0 mi Calm Calm - N/A   Mostly Cloudy
7:35 AM 30.2 °F - 29.1 °F 96% 30.34 in 4.0 mi Calm Calm - N/A   Overcast
7:55 AM 30.7 °F - 29.5 °F 95% 30.35 in 4.0 mi Calm Calm - N/A   Overcast
8:15 AM 31.1 °F 27.7 °F 29.7 °F 94% 30.36 in 5.0 mi ESE 3.5 mph - N/A   Overcast
8:35 AM 31.8 °F 28.5 °F 30.2 °F 94% 30.36 in 5.0 mi ESE 3.5 mph - N/A   Overcast
8:55 AM 32.0 °F 26.4 °F 30.4 °F 94% 30.35 in 5.0 mi ESE 5.8 mph - N/A   Overcast
9:15 AM 32.2 °F 26.7 °F 30.7 °F 94% 30.35 in 5.0 mi SE 5.8 mph - N/A   Overcast
9:35 AM 32.9 °F 28.5 °F 31.5 °F 94% 30.35 in 5.0 mi SE 4.6 mph - N/A   Overcast
9:55 AM 33.4 °F 28.1 °F 32.0 °F 94% 30.35 in 5.0 mi ESE 5.8 mph - N/A   Overcast
10:15 AM 34.2 °F 29.0 °F 32.0 °F 92% 30.34 in 5.0 mi ESE 5.8 mph - N/A Rain Light Rain
10:35 AM 34.9 °F - 32.4 °F 91% 30.35 in 5.0 mi Calm Calm - N/A   Light Drizzle
10:55 AM 35.6 °F 31.7 °F 32.5 °F 89% 30.33 in 5.0 mi ESE 4.6 mph - N/A   Overcast
11:15 AM 36.0 °F 32.1 °F 33.4 °F 91% 30.33 in 5.0 mi SE 4.6 mph - N/A Rain Light Rain
11:35 AM 36.5 °F 33.9 °F 33.8 °F 90% 30.32 in 5.0 mi SE 3.5 mph - N/A Rain Light Rain
11:55 AM 37.4 °F - 34.3 °F 89% 30.31 in 5.0 mi Calm Calm - N/A Rain Light Rain
12:15 PM 38.1 °F 35.7 °F 34.9 °F 88% 30.30 in 7.0 mi SSE 3.5 mph - N/A Rain Light Rain
12:35 PM 38.5 °F 36.1 °F 35.6 °F 89% 30.29 in 7.0 mi SE 3.5 mph - N/A   Light Drizzle
12:55 PM 38.5 °F 35.0 °F 36.0 °F 91% 30.27 in 5.0 mi SE 4.6 mph - N/A   Drizzle
1:15 PM 38.8 °F 36.5 °F 36.5 °F 91% 30.27 in 5.0 mi SE 3.5 mph - N/A   Drizzle
1:35 PM 39.2 °F 35.0 °F 37.2 °F 93% 30.25 in 5.0 mi SE 5.8 mph - N/A Rain Light Rain
1:55 PM 39.4 °F 36.1 °F 38.1 °F 95% 30.25 in 5.0 mi SSE 4.6 mph - N/A Rain Rain
2:15 PM 39.9 °F 35.8 °F 38.5 °F 95% 30.24 in 4.0 mi SE 5.8 mph - N/A   Drizzle
2:35 PM 40.1 °F 35.3 °F 38.7 °F 95% 30.23 in 4.0 mi SE 6.9 mph - N/A Rain Light Rain
2:55 PM 40.3 °F 35.5 °F 39.4 °F 97% 30.23 in 4.0 mi SSE 6.9 mph - 0.01 in Rain Light Rain
3:15 PM 40.6 °F 36.7 °F 39.7 °F 97% 30.22 in 4.0 mi SSE 5.8 mph - 0.03 in Rain Rain
3:35 PM 41.0 °F 37.1 °F 40.1 °F 97% 30.22 in 4.0 mi SSE 5.8 mph - 0.04 in Rain Light Rain
3:55 PM 41.0 °F 37.1 °F 40.5 °F 98% 30.21 in 4.0 mi SSE 5.8 mph - 0.04 in Rain Light Rain
4:15 PM 41.4 °F 36.8 °F 41.0 °F 99% 30.20 in 5.0 mi SE 6.9 mph - N/A Rain Light Rain
4:35 PM 41.9 °F 39.0 °F 41.4 °F 98% 30.21 in 5.0 mi SSE 4.6 mph - N/A   Overcast
4:55 PM 42.1 °F 40.2 °F 41.9 °F 99% 30.20 in 5.0 mi SE 3.5 mph - N/A   Light Drizzle
5:15 PM 42.4 °F 40.7 °F 42.1 °F 99% 30.20 in 7.0 mi SSE 3.5 mph - N/A   Overcast
5:35 PM 42.8 °F 41.1 °F 42.4 °F 99% 30.20 in 7.0 mi SSE 3.5 mph - N/A   Overcast
5:55 PM 43.2 °F - 42.6 °F 98% 30.20 in 7.0 mi Calm Calm - N/A   Mostly Cloudy
6:15 PM 43.2 °F 39.7 °F 42.8 °F 99% 30.19 in 7.0 mi SSE 5.8 mph - N/A   Mostly Cloudy
6:35 PM 43.7 °F 42.1 °F 43.0 °F 97% 30.19 in 7.0 mi SE 3.5 mph - N/A   Overcast
6:55 PM 43.3 °F - 42.8 °F 98% 30.19 in 7.0 mi Calm Calm - N/A   Mostly Cloudy
7:15 PM 43.7 °F 42.1 °F 43.2 °F 98% 30.18 in 10.0 mi SE 3.5 mph - N/A   Mostly Cloudy
7:35 PM 45.0 °F 43.5 °F 43.9 °F 96% 30.18 in 10.0 mi SSE 3.5 mph - N/A   Overcast
7:55 PM 45.5 °F 43.2 °F 44.2 °F 95% 30.18 in 10.0 mi South 4.6 mph - N/A   Overcast
8:15 PM 46.4 °F 43.5 °F 44.6 °F 93% 30.17 in 10.0 mi South 5.8 mph - N/A   Mostly Cloudy
8:35 PM 46.8 °F - 45.0 °F 93% 30.17 in 10.0 mi South 3.5 mph - N/A   Scattered Clouds
8:55 PM 47.3 °F - 45.1 °F 92% 30.16 in 10.0 mi South 10.4 mph - N/A   Scattered Clouds
9:15 PM 48.0 °F - 45.5 °F 91% 30.15 in 10.0 mi South 9.2 mph - N/A   Scattered Clouds
9:35 PM 48.2 °F - 45.5 °F 90% 30.15 in 10.0 mi South 6.9 mph - N/A   Mostly Cloudy
9:55 PM 48.6 °F - 45.5 °F 89% 30.16 in 10.0 mi South 6.9 mph - N/A   Overcast
10:15 PM 48.9 °F - 45.1 °F 87% 30.14 in 10.0 mi South 5.8 mph - N/A   Mostly Cloudy
10:35 PM 49.5 °F - 45.0 °F 84% 30.14 in 10.0 mi South 8.1 mph - N/A   Scattered Clouds
10:55 PM 49.8 °F - 44.6 °F 82% 30.14 in 10.0 mi SSW 11.5 mph 16.1 mph N/A   Clear
11:15 PM 49.6 °F - 44.2 °F 82% 30.14 in 10.0 mi SSW 11.5 mph - N/A   Clear
11:35 PM 50.2 °F - 44.2 °F 80% 30.14 in 10.0 mi South 11.5 mph 18.4 mph N/A   Clear
11:55 PM 50.2 °F - 43.9 °F 79% 30.14 in 10.0 mi SSW 10.4 mph 17.3 mph N/A   Clear